• In Deutschland
  • Länderverzeichnis
  • Für 7 Tage
  • Wassertemperatur
  • Satellitenkarten
  • Wetterkarte
  • Widgets
  • user-avatar
    Anmelden

    Stündliche Wetter Townsville

    Heute, 23 Juni, Freitag

    Zeit Temperatur Niederschläge Wind Luftdruck Luftfeuchtigkeit
    00:00 +15°C° 0 mm 5 m/S 758 mmHg 94%
    01:00 +15°C° 0 mm 5 m/S 758 mmHg 95%
    02:00 +15°C° 0 mm 5 m/S 757 mmHg 96%
    03:00 +14°C° 0 mm 5 m/S 757 mmHg 97%
    04:00 +14°C° 0 mm 4 m/S 757 mmHg 98%
    05:00 +14°C° 0 mm 4 m/S 757 mmHg 98%
    06:00 +14°C° 0 mm 4 m/S 757 mmHg 98%
    07:00 +14°C° 0 mm 4 m/S 758 mmHg 98%
    08:00 +17°C° 0,1 mm 4 m/S 758 mmHg 89%
    09:00 +20°C° 0,1 mm 5 m/S 758 mmHg 80%
    10:00 +23°C° 0 mm 4 m/S 757 mmHg 70%
    11:00 +25°C° 0,1 mm 4 m/S 757 mmHg 66%
    12:00 +25°C° 0,1 mm 5 m/S 757 mmHg 62%
    13:00 +26°C° 0,1 mm 5 m/S 756 mmHg 59%
    14:00 +26°C° 0 mm 5 m/S 756 mmHg 61%
    15:00 +25°C° 0 mm 5 m/S 756 mmHg 63%
    16:00 +25°C° 0 mm 5 m/S 756 mmHg 65%
    17:00 +22°C° 0 mm 5 m/S 756 mmHg 70%
    18:00 +21°C° 0 mm 5 m/S 756 mmHg 76%
    19:00 +20°C° 0 mm 4 m/S 756 mmHg 81%
    20:00 +19°C° 0 mm 4 m/S 756 mmHg 85%
    21:00 +18°C° 0 mm 4 m/S 756 mmHg 89%
    22:00 +17°C° 0 mm 4 m/S 756 mmHg 93%
    23:00 +17°C° 0 mm 4 m/S 756 mmHg 94%

    Morgen, 24 Juni, Samstag

    Zeit Temperatur Niederschläge Wind Luftdruck Luftfeuchtigkeit
    00:00 +17°C° 0 mm 4 m/S 756 mmHg 95%
    01:00 +15°C° 0 mm 4 m/S 756 mmHg 96%
    02:00 +15°C° 0,1 mm 4 m/S 756 mmHg 97%
    03:00 +15°C° 0,1 mm 4 m/S 755 mmHg 97%
    04:00 +15°C° 0,1 mm 4 m/S 755 mmHg 98%
    05:00 +15°C° 0,1 mm 4 m/S 755 mmHg 98%
    06:00 +15°C° 0,1 mm 4 m/S 755 mmHg 98%
    07:00 +15°C° 0,1 mm 4 m/S 756 mmHg 97%
    08:00 +17°C° 0 mm 5 m/S 756 mmHg 88%
    09:00 +20°C° 0 mm 5 m/S 756 mmHg 79%
    10:00 +23°C° 0 mm 5 m/S 756 mmHg 70%
    11:00 +25°C° 0,1 mm 5 m/S 756 mmHg 66%
    12:00 +26°C° 0,1 mm 5 m/S 755 mmHg 61%
    13:00 +26°C° 0,1 mm 5 m/S 755 mmHg 57%
    14:00 +26°C° 0 mm 5 m/S 755 mmHg 60%
    15:00 +25°C° 0 mm 5 m/S 754 mmHg 64%
    16:00 +23°C° 0 mm 5 m/S 754 mmHg 67%
    17:00 +22°C° 0 mm 5 m/S 755 mmHg 73%
    18:00 +21°C° 0 mm 4 m/S 755 mmHg 79%
    19:00 +20°C° 0 mm 4 m/S 755 mmHg 85%
    20:00 +19°C° 0 mm 4 m/S 756 mmHg 87%
    21:00 +18°C° 0 mm 4 m/S 756 mmHg 90%
    22:00 +17°C° 0 mm 4 m/S 756 mmHg 93%
    23:00 +17°C° 0 mm 4 m/S 756 mmHg 94%

    übermorgen, 25 Juni, Sonntag

    Zeit Temperatur Niederschläge Wind Luftdruck Luftfeuchtigkeit
    00:00 +17°C° 0 mm 4 m/S 756 mmHg 94%
    01:00 +15°C° 0 mm 4 m/S 756 mmHg 95%
    02:00 +15°C° 0 mm 4 m/S 756 mmHg 95%
    03:00 +14°C° 0 mm 4 m/S 755 mmHg 95%
    04:00 +14°C° 0 mm 4 m/S 755 mmHg 95%
    05:00 +14°C° 0 mm 4 m/S 755 mmHg 94%
    06:00 +14°C° 0 mm 4 m/S 756 mmHg 93%
    07:00 +14°C° 0 mm 4 m/S 756 mmHg 92%
    08:00 +17°C° 0 mm 4 m/S 756 mmHg 82%
    09:00 +20°C° 0 mm 4 m/S 757 mmHg 72%
    10:00 +23°C° 0 mm 5 m/S 757 mmHg 62%
    11:00 +25°C° 0 mm 5 m/S 757 mmHg 61%
    12:00 +26°C° 0 mm 5 m/S 756 mmHg 60%
    13:00 +27°C° 0 mm 5 m/S 756 mmHg 59%
    14:00 +26°C° 0,1 mm 5 m/S 755 mmHg 62%
    15:00 +26°C° 0,1 mm 5 m/S 755 mmHg 65%
    16:00 +25°C° 0,1 mm 5 m/S 755 mmHg 69%
    17:00 +22°C° 0 mm 5 m/S 755 mmHg 77%
    18:00 +21°C° 0 mm 5 m/S 756 mmHg 86%
    19:00 +19°C° 0 mm 5 m/S 756 mmHg 95%
    20:00 +19°C° 0 mm 5 m/S 757 mmHg 95%
    21:00 +19°C° 0 mm 5 m/S 757 mmHg 95%
    22:00 +17°C° 0 mm 5 m/S 757 mmHg 96%
    23:00 +17°C° 0,1 mm 5 m/S 757 mmHg 96%

    26 Juni, Montag

    Zeit Temperatur Niederschläge Wind Luftdruck Luftfeuchtigkeit
    00:00 +17°C° 0,1 mm 5 m/S 757 mmHg 96%
    01:00 +16°C° 0,1 mm 5 m/S 757 mmHg 97%
    02:00 +16°C° 0 mm 5 m/S 757 mmHg 97%
    03:00 +15°C° 0 mm 4 m/S 757 mmHg 98%
    04:00 +15°C° 0 mm 4 m/S 756 mmHg 98%
    05:00 +15°C° 0 mm 4 m/S 757 mmHg 98%
    06:00 +14°C° 0 mm 4 m/S 757 mmHg 98%
    07:00 +14°C° 0 mm 4 m/S 758 mmHg 98%
    08:00 +18°C° 0 mm 4 m/S 758 mmHg 89%
    09:00 +20°C° 0 mm 5 m/S 758 mmHg 80%
    10:00 +22°C° 0 mm 5 m/S 758 mmHg 71%
    11:00 +23°C° 0 mm 5 m/S 758 mmHg 66%
    12:00 +24°C° 0 mm 6 m/S 757 mmHg 61%
    13:00 +26°C° 0 mm 6 m/S 757 mmHg 56%
    14:00 +26°C° 0 mm 6 m/S 757 mmHg 57%
    15:00 +26°C° 0 mm 6 m/S 756 mmHg 58%
    16:00 +24°C° 0 mm 6 m/S 756 mmHg 60%
    17:00 +23°C° 0 mm 6 m/S 757 mmHg 68%
    18:00 +21°C° 0 mm 6 m/S 757 mmHg 76%
    19:00 +19°C° 0 mm 6 m/S 758 mmHg 85%
    20:00 +19°C° 0 mm 5 m/S 758 mmHg 87%
    21:00 +17°C° 0 mm 5 m/S 758 mmHg 89%
    22:00 +17°C° 0 mm 5 m/S 759 mmHg 91%
    23:00 +17°C° 0 mm 5 m/S 758 mmHg 91%

    27 Juni, Dienstag

    Zeit Temperatur Niederschläge Wind Luftdruck Luftfeuchtigkeit
    00:00 +17°C° 0 mm 5 m/S 758 mmHg 91%
    01:00 +18°C° 0 mm 4 m/S 758 mmHg 90%
    02:00 +18°C° 0 mm 4 m/S 757 mmHg 91%
    03:00 +18°C° 0 mm 4 m/S 757 mmHg 92%
    04:00 +18°C° 0 mm 4 m/S 757 mmHg 93%
    05:00 +18°C° 0 mm 4 m/S 757 mmHg 94%
    06:00 +17°C° 0 mm 4 m/S 758 mmHg 95%
    07:00 +17°C° 0 mm 4 m/S 758 mmHg 96%
    08:00 +19°C° 0,1 mm 4 m/S 758 mmHg 90%
    09:00 +21°C° 0,1 mm 5 m/S 758 mmHg 84%
    10:00 +23°C° 0,1 mm 5 m/S 759 mmHg 79%
    11:00 +23°C° 0,2 mm 5 m/S 758 mmHg 78%
    12:00 +23°C° 0,2 mm 5 m/S 758 mmHg 77%
    13:00 +25°C° 0,2 mm 5 m/S 757 mmHg 77%
    14:00 +25°C° 0,1 mm 5 m/S 757 mmHg 76%
    15:00 +25°C° 0,1 mm 5 m/S 756 mmHg 76%
    16:00 +25°C° 0,1 mm 5 m/S 756 mmHg 76%
    17:00 +23°C° 0,2 mm 5 m/S 757 mmHg 81%
    18:00 +22°C° 0,2 mm 5 m/S 757 mmHg 86%
    19:00 +21°C° 0,2 mm 5 m/S 757 mmHg 91%
    20:00 +21°C° 0,2 mm 5 m/S 758 mmHg 92%
    21:00 +21°C° 0,2 mm 5 m/S 758 mmHg 93%
    22:00 +20°C° 0,2 mm 5 m/S 758 mmHg 95%
    23:00 +20°C° 0,2 mm 5 m/S 758 mmHg 95%

    28 Juni, Mittwoch

    Zeit Temperatur Niederschläge Wind Luftdruck Luftfeuchtigkeit
    00:00 +20°C° 0,2 mm 5 m/S 757 mmHg 95%
    01:00 +20°C° 0,2 mm 5 m/S 757 mmHg 95%
    02:00 +20°C° 0,1 mm 5 m/S 757 mmHg 95%
    03:00 +20°C° 0,1 mm 5 m/S 757 mmHg 95%
    04:00 +20°C° 0,1 mm 5 m/S 756 mmHg 95%
    05:00 +20°C° 0,1 mm 5 m/S 757 mmHg 95%
    06:00 +20°C° 0,1 mm 5 m/S 757 mmHg 96%
    07:00 +20°C° 0,1 mm 5 m/S 757 mmHg 96%
    08:00 +21°C° 0,1 mm 5 m/S 758 mmHg 93%
    09:00 +22°C° 0,1 mm 6 m/S 758 mmHg 90%
    10:00 +22°C° 0,1 mm 6 m/S 758 mmHg 87%
    11:00 +23°C° 0,1 mm 6 m/S 758 mmHg 83%
    12:00 +24°C° 0,1 mm 6 m/S 757 mmHg 78%
    13:00 +26°C° 0,1 mm 6 m/S 757 mmHg 74%
    14:00 +24°C° 0,1 mm 6 m/S 757 mmHg 74%
    15:00 +24°C° 0,1 mm 6 m/S 756 mmHg 74%
    16:00 +24°C° 0,1 mm 6 m/S 756 mmHg 74%
    17:00 +23°C° 0 mm 5 m/S 757 mmHg 80%
    18:00 +22°C° 0 mm 5 m/S 757 mmHg 85%
    19:00 +21°C° 0 mm 5 m/S 757 mmHg 90%
    20:00 +21°C° 0 mm 5 m/S 757 mmHg 92%
    21:00 +21°C° 0 mm 5 m/S 758 mmHg 93%
    22:00 +20°C° 0 mm 5 m/S 758 mmHg 95%
    23:00 +20°C° 0 mm 5 m/S 758 mmHg 95%
    Mehr zeigen